• In Belarus
  • List of Countries
  • For 7 days
  • Water Temperature
  • Satellite Maps
  • Weather Map
  • Weather Widgets
  • user-avatar
    Login

    Hourly Weather Newport

    Today, 23 March, Saturday

    Time Temperature Precipitation Wind Pressure Humidity
    00:00 +8°C° 0 mm 4 mps 770 mmHg 90%
    01:00 +7°C° 0 mm 4 mps 770 mmHg 88%
    02:00 +6°C° 0 mm 4 mps 771 mmHg 86%
    03:00 +6°C° 0 mm 4 mps 771 mmHg 85%
    04:00 +6°C° 0 mm 4 mps 771 mmHg 84%
    05:00 +5°C° 0 mm 4 mps 772 mmHg 84%
    06:00 +5°C° 0 mm 4 mps 772 mmHg 84%
    07:00 +6°C° 0 mm 4 mps 772 mmHg 81%
    08:00 +6°C° 0 mm 4 mps 773 mmHg 78%
    09:00 +7°C° 0 mm 4 mps 773 mmHg 75%
    10:00 +8°C° 0 mm 4 mps 773 mmHg 72%
    11:00 +10°C° 0 mm 4 mps 773 mmHg 69%
    12:00 +10°C° 0 mm 4 mps 773 mmHg 65%
    13:00 +10°C° 0 mm 4 mps 773 mmHg 65%
    14:00 +10°C° 0 mm 3 mps 773 mmHg 66%
    15:00 +11°C° 0 mm 3 mps 773 mmHg 66%
    16:00 +10°C° 0 mm 3 mps 773 mmHg 69%
    17:00 +9°C° 0 mm 3 mps 773 mmHg 73%
    18:00 +9°C° 0 mm 3 mps 773 mmHg 77%
    19:00 +8°C° 0 mm 3 mps 773 mmHg 76%
    20:00 +8°C° 0 mm 3 mps 773 mmHg 76%
    21:00 +7°C° 0 mm 3 mps 773 mmHg 76%
    22:00 +7°C° 0.1 mm 3 mps 773 mmHg 78%
    23:00 +7°C° 0.1 mm 3 mps 774 mmHg 80%

    Tomorrow, 24 March, Sunday

    Time Temperature Precipitation Wind Pressure Humidity
    00:00 +7°C° 0.1 mm 3 mps 774 mmHg 82%
    01:00 +5°C° 0.1 mm 3 mps 773 mmHg 83%
    02:00 +5°C° 0.1 mm 3 mps 773 mmHg 84%
    03:00 +5°C° 0.1 mm 3 mps 773 mmHg 85%
    04:00 +5°C° 0 mm 3 mps 773 mmHg 85%
    05:00 +6°C° 0 mm 2 mps 773 mmHg 85%
    06:00 +6°C° 0 mm 2 mps 773 mmHg 85%
    07:00 +6°C° 0 mm 2 mps 774 mmHg 82%
    08:00 +7°C° 0 mm 2 mps 774 mmHg 78%
    09:00 +8°C° 0 mm 2 mps 775 mmHg 74%
    10:00 +9°C° 0 mm 3 mps 775 mmHg 70%
    11:00 +10°C° 0 mm 3 mps 775 mmHg 65%
    12:00 +11°C° 0 mm 3 mps 775 mmHg 61%
    13:00 +11°C° 0 mm 4 mps 775 mmHg 60%
    14:00 +10°C° 0 mm 4 mps 774 mmHg 60%
    15:00 +10°C° 0 mm 4 mps 774 mmHg 59%
    16:00 +8°C° 0 mm 4 mps 774 mmHg 64%
    17:00 +7°C° 0 mm 4 mps 774 mmHg 69%
    18:00 +6°C° 0 mm 4 mps 774 mmHg 74%
    19:00 +5°C° 0 mm 4 mps 775 mmHg 77%
    20:00 +4°C° 0 mm 3 mps 775 mmHg 81%
    21:00 +3°C° 0 mm 3 mps 775 mmHg 85%
    22:00 +3°C° 0 mm 3 mps 775 mmHg 86%
    23:00 +3°C° 0 mm 3 mps 775 mmHg 87%

    Day after tomorrow, 25 March, Monday

    Time Temperature Precipitation Wind Pressure Humidity
    00:00 +3°C° 0 mm 2 mps 775 mmHg 88%
    01:00 +3°C° 0 mm 2 mps 775 mmHg 89%
    02:00 +3°C° 0 mm 2 mps 775 mmHg 90%
    03:00 +4°C° 0 mm 2 mps 775 mmHg 91%
    04:00 +3°C° 0 mm 3 mps 775 mmHg 92%
    05:00 +3°C° 0 mm 3 mps 775 mmHg 92%
    06:00 +3°C° 0 mm 3 mps 775 mmHg 93%
    07:00 +4°C° 0 mm 3 mps 775 mmHg 87%
    08:00 +7°C° 0 mm 3 mps 776 mmHg 81%
    09:00 +8°C° 0 mm 3 mps 776 mmHg 75%
    10:00 +10°C° 0 mm 3 mps 776 mmHg 70%
    11:00 +12°C° 0 mm 2 mps 776 mmHg 65%
    12:00 +13°C° 0 mm 1 mps 776 mmHg 60%
    13:00 +13°C° 0 mm 1 mps 776 mmHg 61%
    14:00 +13°C° 0 mm 1 mps 776 mmHg 61%
    15:00 +13°C° 0 mm 1 mps 775 mmHg 61%
    16:00 +13°C° 0 mm 1 mps 775 mmHg 67%
    17:00 +12°C° 0 mm 1 mps 775 mmHg 74%
    18:00 +11°C° 0 mm 1 mps 775 mmHg 80%
    19:00 +10°C° 0 mm 1 mps 776 mmHg 83%
    20:00 +8°C° 0 mm 1 mps 776 mmHg 86%
    21:00 +6°C° 0 mm 2 mps 777 mmHg 89%
    22:00 +6°C° 0 mm 2 mps 777 mmHg 89%
    23:00 +6°C° 0 mm 2 mps 777 mmHg 89%

    26 March, Tuesday

    Time Temperature Precipitation Wind Pressure Humidity
    00:00 +6°C° 0 mm 2 mps 777 mmHg 89%
    01:00 +5°C° 0 mm 2 mps 777 mmHg 90%
    02:00 +5°C° 0 mm 2 mps 777 mmHg 90%
    03:00 +5°C° 0 mm 2 mps 776 mmHg 91%
    04:00 +5°C° 0 mm 2 mps 776 mmHg 91%
    05:00 +4°C° 0 mm 2 mps 776 mmHg 90%
    06:00 +5°C° 0 mm 1 mps 776 mmHg 90%
    07:00 +6°C° 0 mm 2 mps 777 mmHg 84%
    08:00 +7°C° 0 mm 2 mps 777 mmHg 79%
    09:00 +9°C° 0 mm 2 mps 777 mmHg 73%
    10:00 +10°C° 0 mm 2 mps 777 mmHg 69%
    11:00 +12°C° 0 mm 2 mps 777 mmHg 65%
    12:00 +13°C° 0 mm 2 mps 777 mmHg 61%
    13:00 +13°C° 0 mm 2 mps 777 mmHg 60%
    14:00 +13°C° 0 mm 1 mps 776 mmHg 59%
    15:00 +14°C° 0 mm 1 mps 776 mmHg 59%
    16:00 +13°C° 0 mm 1 mps 776 mmHg 64%
    17:00 +12°C° 0 mm 1 mps 775 mmHg 69%
    18:00 +11°C° 0 mm 1 mps 775 mmHg 74%
    19:00 +9°C° 0 mm 1 mps 775 mmHg 79%
    20:00 +7°C° 0 mm 2 mps 776 mmHg 84%
    21:00 +6°C° 0 mm 2 mps 776 mmHg 88%
    22:00 +6°C° 0 mm 2 mps 776 mmHg 89%
    23:00 +6°C° 0 mm 2 mps 776 mmHg 89%

    27 March, Wednesday

    Time Temperature Precipitation Wind Pressure Humidity
    00:00 +7°C° 0 mm 1 mps 776 mmHg 89%
    01:00 +6°C° 0 mm 1 mps 776 mmHg 88%
    02:00 +6°C° 0 mm 1 mps 776 mmHg 87%
    03:00 +6°C° 0 mm 1 mps 776 mmHg 86%
    04:00 +6°C° 0 mm 1 mps 776 mmHg 85%
    05:00 +6°C° 0 mm 1 mps 776 mmHg 85%
    06:00 +6°C° 0 mm 1 mps 776 mmHg 84%
    07:00 +8°C° 0 mm 1 mps 776 mmHg 78%
    08:00 +10°C° 0 mm 1 mps 776 mmHg 72%
    09:00 +11°C° 0 mm 1 mps 776 mmHg 67%
    10:00 +13°C° 0 mm 1 mps 776 mmHg 63%
    11:00 +14°C° 0 mm 1 mps 776 mmHg 59%
    12:00 +16°C° 0 mm 1 mps 776 mmHg 55%
    13:00 +16°C° 0 mm 1 mps 776 mmHg 55%
    14:00 +18°C° 0 mm 1 mps 775 mmHg 54%
    15:00 +18°C° 0 mm 1 mps 775 mmHg 54%
    16:00 +16°C° 0 mm 1 mps 775 mmHg 60%
    17:00 +15°C° 0 mm 1 mps 775 mmHg 67%
    18:00 +13°C° 0 mm 1 mps 775 mmHg 73%
    19:00 +12°C° 0 mm 1 mps 775 mmHg 76%
    20:00 +10°C° 0 mm 2 mps 775 mmHg 79%
    21:00 +9°C° 0 mm 2 mps 775 mmHg 82%
    22:00 +9°C° 0 mm 2 mps 775 mmHg 83%
    23:00 +8°C° 0 mm 3 mps 775 mmHg 85%

    28 March, Thursday

    Time Temperature Precipitation Wind Pressure Humidity
    00:00 +8°C° 0 mm 3 mps 775 mmHg 86%
    01:00 +8°C° 0 mm 3 mps 775 mmHg 88%
    02:00 +7°C° 0 mm 3 mps 775 mmHg 89%
    03:00 +7°C° 0 mm 3 mps 775 mmHg 90%
    04:00 +7°C° 0 mm 3 mps 775 mmHg 91%
    05:00 +7°C° 0 mm 3 mps 775 mmHg 92%
    06:00 +7°C° 0 mm 3 mps 775 mmHg 93%
    07:00 +7°C° 0 mm 4 mps 775 mmHg 87%
    08:00 +10°C° 0 mm 4 mps 775 mmHg 82%
    09:00 +11°C° 0 mm 4 mps 775 mmHg 77%
    10:00 +12°C° 0 mm 4 mps 775 mmHg 74%
    11:00 +13°C° 0 mm 4 mps 775 mmHg 71%
    12:00 +14°C° 0 mm 4 mps 775 mmHg 67%
    13:00 +15°C° 0 mm 4 mps 774 mmHg 67%
    14:00 +15°C° 0 mm 4 mps 774 mmHg 68%
    15:00 +16°C° 0 mm 3 mps 774 mmHg 68%
    16:00 +14°C° 0 mm 3 mps 773 mmHg 72%
    17:00 +14°C° 0 mm 3 mps 773 mmHg 77%
    18:00 +13°C° 0 mm 3 mps 773 mmHg 81%
    19:00 +12°C° 0 mm 3 mps 773 mmHg 84%
    20:00 +11°C° 0 mm 3 mps 773 mmHg 88%
    21:00 +10°C° 0 mm 3 mps 774 mmHg 91%
    22:00 +9°C° 0 mm 3 mps 773 mmHg 91%
    23:00 +9°C° 0 mm 3 mps 773 mmHg 92%
    Show more